TimeEDT,TemperatureF,Dew PointF,Humidity,Sea Level PressureIn,VisibilityMPH,Wind Direction,Wind SpeedMPH,Gust SpeedMPH,PrecipitationIn,Events,Conditions,WindDirDegrees,DateUTC
12:00 AM,39.2,35.6,87,30.17,15.0,North,8.1,-,N/A,,Mostly Cloudy,350,2012-10-28 04:00:00
1:00 AM,37.4,35.6,93,30.18,15.0,NNW,11.5,-,N/A,,Partly Cloudy,330,2012-10-28 05:00:00
2:00 AM,37,35,89,30.17,15,NNW,11.5,,,,,340,2012-10-28 06:00:00
2:00 AM,37.4,35.6,93,30.16,15.0,NNW,10.4,-,N/A,,Partly Cloudy,340,2012-10-28 06:00:00
3:00 AM,35.6,33.8,93,30.17,15.0,North,8.1,-,N/A,,Partly Cloudy,360,2012-10-28 07:00:00
3:06 AM,35.6,33.8,93,30.17,15.0,North,8.1,-,N/A,,Partly Cloudy,350,2012-10-28 07:06:00
4:00 AM,35.6,33.8,93,30.17,15.0,NNW,9.2,-,N/A,,Partly Cloudy,340,2012-10-28 08:00:00
4:27 AM,35.6,33.8,93,30.17,15.0,North,8.1,-,N/A,,Partly Cloudy,350,2012-10-28 08:27:00
5:00 AM,35.6,33.8,93,30.17,15.0,North,9.2,-,N/A,,Partly Cloudy,350,2012-10-28 09:00:00
6:00 AM,35.6,33.8,93,30.15,15.0,North,12.7,-,N/A,,Partly Cloudy,360,2012-10-28 10:00:00
7:00 AM,35.6,32.0,87,30.14,15.0,North,13.8,20.7,N/A,,Partly Cloudy,360,2012-10-28 11:00:00
8:00 AM,36,33,87,30.14,15,North,13.8,,,,,0,2012-10-28 12:00:00
8:00 AM,35.6,33.8,93,30.14,15.0,North,13.8,20.7,N/A,,Mostly Cloudy,350,2012-10-28 12:00:00
9:00 AM,39.2,35.6,87,30.15,15.0,North,13.8,21.9,N/A,,Mostly Cloudy,10,2012-10-28 13:00:00
10:00 AM,39.2,35.6,87,30.16,15.0,North,13.8,23.0,N/A,,Mostly Cloudy,360,2012-10-28 14:00:00
11:00 AM,41.0,35.6,81,30.14,15.0,NNE,17.3,-,N/A,,Overcast,20,2012-10-28 15:00:00
12:00 PM,42.8,35.6,76,30.15,15.0,NNE,15.0,27.6,N/A,,Overcast,30,2012-10-28 16:00:00
1:00 PM,42.8,35.6,76,30.12,15.0,NNE,17.3,26.5,N/A,,Overcast,20,2012-10-28 17:00:00
2:00 PM,43,35,65,30.10,15,North,16.1,,,,Overcast,10,2012-10-28 18:00:00
2:00 PM,42.8,35.6,76,30.10,15.0,North,13.8,24.2,N/A,Rain,Light Rain,360,2012-10-28 18:00:00
3:00 PM,42.8,35.6,76,30.08,15.0,North,16.1,25.3,N/A,Rain,Light Rain,360,2012-10-28 19:00:00
4:00 PM,41.0,35.6,81,30.07,15.0,North,17.3,23.0,N/A,Rain,Light Rain,10,2012-10-28 20:00:00
4:30 PM,41.0,35.6,81,30.07,15.0,North,13.8,23.0,N/A,,Overcast,360,2012-10-28 20:30:00
5:00 PM,41.0,35.6,81,30.07,15.0,North,12.7,20.7,N/A,,Overcast,360,2012-10-28 21:00:00
5:13 PM,41.0,33.8,76,30.07,12.0,North,13.8,24.2,N/A,Rain,Light Rain,10,2012-10-28 21:13:00
6:00 PM,39.2,35.6,87,30.07,12.0,North,15.0,26.5,N/A,Rain,Light Rain,10,2012-10-28 22:00:00
7:00 PM,39.2,35.6,87,30.07,12.0,North,16.1,25.3,N/A,Rain,Light Rain,360,2012-10-28 23:00:00
8:00 PM,38,35,83,30.06,12,North,16.1,,,,Overcast,0,2012-10-29 00:00:00
8:00 PM,39.2,35.6,87,30.06,12.0,North,17.3,24.2,N/A,Rain,Light Rain,360,2012-10-29 00:00:00
9:00 PM,37.4,35.6,93,30.06,12.0,North,15.0,20.7,N/A,Rain,Light Rain,360,2012-10-29 01:00:00
10:00 PM,37.4,35.6,93,30.06,0.0,North,12.7,21.9,N/A,Rain,Light Rain,360,2012-10-29 02:00:00
10:41 PM,37.4,35.6,93,30.06,8.0,North,11.5,23.0,N/A,Rain,Light Rain,350,2012-10-29 02:41:00
11:00 PM,37.4,35.6,93,30.05,8.0,North,16.1,24.2,N/A,Rain,Light Rain,360,2012-10-29 03:00:00
11:36 PM,37.4,35.6,93,30.04,6.0,North,17.3,26.5,N/A,Rain,Light Rain,350,2012-10-29 03:36:00